[[[{"header":{"parameterUnit":"kt","parameterCategory":2,"dx":1,"dy":1,"la1":30.253999710083008,"la2":30.299108505249023,"lo1":-89.0895004272461,"lo2":-89.04439544677734,"nx":28,"ny":28,"refTime":"2022-10-14T21:00:00:Z","depth":0,"parameterNumber":1,"parameterNumberName":"U-component_of_WINDS"},"data":[-4.8079,-4.8211,-4.8232,-4.8393,-4.8439,-4.8553,-4.86,-4.8664,-4.872,-4.8859,-4.8943,-4.8978,-4.9043,-4.9149,-4.9241,-4.9255,-4.9293,-4.9325,-4.9336,-4.9171,-4.915,-4.9129,-4.9099,-4.9333,-4.9334,-4.9503,-4.9505,-4.9506,-4.7958,-4.8004,-4.8095,-4.8197,-4.8276,-4.8257,-4.8337,-4.8404,-4.8507,-4.8577,-4.866,-4.8785,-4.8886,-4.8941,-4.9042,-4.9106,-4.9103,-4.9132,-4.9127,-4.9138,-4.8963,-4.893,-4.9132,-4.9132,-4.9132,-4.9132,-4.9132,-4.9132,-4.7744,-4.7823,-4.7896,-4.7995,-4.8051,-4.812,-4.8199,-4.8239,-4.8329,-4.8436,-4.8443,-4.856,-4.8634,-4.8766,-4.8815,-4.8907,-4.8879,-4.8917,-4.8927,-4.8936,-4.8944,-4.8697,-4.8925,-4.8925,-4.8924,-4.8924,-4.8924,0,-4.7593,-4.7605,-4.7693,-4.7788,-4.7861,-4.7936,-4.8009,-4.8059,-4.809,-4.8163,-4.827,-4.8336,-4.8465,-4.8569,-4.8668,-4.8712,-4.87,-4.8701,-4.8727,-4.8725,-4.8711,-4.8721,-4.8434,-4.8694,-4.8692,-4.869,-4.8689,-4.8689,-4.7379,-4.7468,-4.7554,-4.7613,-4.7657,-4.7753,-4.7814,-4.7835,-4.7899,-4.7992,-4.8061,-4.8165,-4.8249,-4.8418,-4.8464,-4.8562,-4.8557,-4.8653,-4.8571,-4.8566,-4.8559,-4.8553,-4.8563,-4.8669,-4.8671,-4.8673,-4.8675,0,-4.7257,-4.7288,-4.7433,-4.7509,-4.753,-4.7623,-4.7689,-4.7768,-4.7798,-4.7912,-4.794,-4.7987,-4.8092,-4.8123,-4.8249,-4.8262,-4.8417,-4.841,-4.8392,-4.8392,-4.8482,-4.8473,-4.8768,-4.8808,-4.8565,-4.8568,-4.8569,0,-4.7086,-4.7202,-4.7243,-4.7325,-4.7455,-4.7472,-4.76,-4.7638,-4.7701,-4.7791,-4.7781,-4.7866,-4.7891,-4.7981,-4.8,-4.8132,-4.8155,-4.8173,-4.8177,-4.8174,-4.8172,-4.8208,-4.8196,-4.8181,-4.8179,-4.8178,-4.8177,0,-4.6891,-4.7048,-4.7181,-4.7222,-4.7315,-4.7377,-4.7419,-4.7489,-4.7548,-4.7631,-4.767,-4.7765,-4.7817,-4.7891,-4.7914,-4.7857,-4.8076,-4.8003,-4.8094,-4.8094,-4.814,-4.8137,-4.8391,-4.8175,-4.8174,-4.8174,-4.8173,0,-4.6758,-4.6839,-4.7028,-4.7104,-4.7145,-4.7233,-4.7326,-4.7409,-4.7483,-4.75,-4.7565,-4.7562,-4.7679,-4.7604,-4.7766,-4.7685,-4.7738,-4.7765,-4.7772,-4.7783,-4.7698,-4.7838,-4.8077,-4.8103,-4.7796,-4.7793,-4.779,0,-4.6526,-4.6724,-4.6739,-4.6917,-4.7013,-4.6994,-4.7093,-4.7158,-4.7189,-4.7275,-4.7309,-4.7407,-4.7357,-4.7392,-4.7468,-4.7507,-4.7612,-4.7494,-4.7619,-4.7623,-4.7599,-4.782,-4.7847,-4.8021,-4.775,-4.7754,-4.7757,0,-4.635,-4.6459,-4.649,-4.6537,-4.6625,-4.6705,-4.6818,-4.6917,-4.6974,-4.7048,-4.7144,-4.7282,-4.725,-4.7307,-4.7313,-4.7392,-4.7542,-4.7347,-4.7349,-4.7381,-4.7732,-4.7758,-4.7787,-4.7529,-4.7534,-4.7538,-4.7726,0,-4.6142,-4.6244,-4.6328,-4.6431,-4.6497,-4.661,-4.664,-4.6705,-4.6704,-4.6733,-4.6874,-4.6935,-4.7037,-4.7077,-4.7077,-4.7246,-4.7222,-4.7186,-4.7114,-4.7259,-4.7322,-4.7347,-4.7019,-4.7017,-4.7015,-4.7014,0,0,-4.5912,-4.6058,-4.607,-4.6179,-4.6235,-4.6213,-4.6332,-4.6384,-4.649,-4.6529,-4.649,-4.6692,-4.6743,-4.6911,-4.6958,-4.6999,-4.7032,-4.698,-4.719,-4.7209,-4.7228,-4.7294,-4.732,-4.7011,-4.7011,-4.701,-4.701,0,-4.5841,-4.5893,-4.6009,-4.6063,-4.6144,-4.6168,-4.6196,-4.6272,-4.6296,-4.6432,-4.6412,-4.65,-4.6661,-4.6718,-4.6768,-4.6961,-4.6941,-4.699,-4.7084,-4.7172,-4.7194,-4.7213,-4.7283,-4.7307,-4.7006,-4.7006,-4.7006,0,-4.5673,-4.5728,-4.5787,-4.5912,-4.5965,-4.6063,-4.5995,-4.6101,-4.6174,-4.6144,-4.628,-4.6318,-4.6396,-4.655,-4.662,-4.6585,-4.6856,-4.6775,-4.6786,-4.6794,-4.6882,-4.6908,-4.6931,-4.6626,-4.6624,-4.6623,0,0,-4.5608,-4.5702,-4.5767,-4.5899,-4.5934,-4.5971,-4.6026,-4.603,-4.61,-4.6128,-4.6175,-4.6245,-4.6338,-4.64,-4.6489,-4.6654,-4.6671,-4.6727,-4.6745,-4.676,-4.6775,-4.6867,-4.6892,-4.6618,-4.6618,-4.6617,0,0,-4.5577,-4.5657,-4.5643,-4.58,-4.5867,-4.5939,-4.6019,-4.6004,-4.6087,-4.6077,-4.609,-4.6109,-4.6253,-4.629,-4.6214,-4.6464,-4.6392,-4.6411,-4.6434,-4.6457,-4.6474,-4.6462,-4.6152,0,0,0,0,0,-4.5519,-4.5647,-4.5633,-4.5664,-4.5822,-4.5947,-4.5967,-4.598,-4.5929,-4.5992,-4.603,-4.6004,-4.6252,-4.6185,-4.6215,-4.6299,-4.6547,-4.656,-4.6572,-4.664,-4.6663,-4.6683,0,0,0,0,0,0,-4.5531,-4.5568,-4.563,-4.5708,-4.5743,-4.5942,-4.5859,-4.5866,-4.5922,-4.5916,-4.5997,-4.6006,-4.602,-4.617,-4.6197,-4.6277,-4.6143,-4.6552,-4.6563,-4.6572,-4.6648,-4.6667,-4.6684,0,0,0,0,0,-4.5541,-4.557,-4.582,-4.5706,-4.5737,-4.5785,-4.5854,-4.5859,-4.5903,-4.5961,-4.5969,-4.5908,-4.6022,-4.6045,-4.6186,-4.6264,-4.6124,-4.6134,-4.6559,-4.6567,-4.6575,-4.6657,0,0,0,0,0,0,-4.5548,-4.5576,-4.5826,-4.5836,-4.5658,-4.5774,-4.5792,-4.5854,-4.5945,-4.5954,-4.5871,-4.5865,-4.6025,-4.6042,-4.6061,-4.6259,-4.6109,-4.6119,-4.6125,-4.6565,-4.6572,-4.6578,0,0,0,0,0,0,-4.556,-4.5585,-4.5831,-4.577,-4.5773,-4.5764,-4.578,-4.5901,-4.5946,-4.585,-4.5848,-4.5867,-4.5997,-4.6041,-4.6055,-4.6244,-4.6097,-4.6107,-4.6114,-4.6118,-4.6571,-4.6576,0,0,0,0,0,0,-4.5571,-4.5592,-4.5768,-4.577,-4.5772,-4.5885,-4.5871,-4.6032,-4.5893,-4.5847,-4.5881,-4.5876,-4.5997,-4.6011,-4.6052,-4.6234,-4.6241,-4.6097,-4.6104,-4.6109,-4.6112,0,0,0,0,0,0,0,-4.558,-4.5435,-4.5767,-4.577,-4.5772,-4.5928,-4.5931,-4.5934,-4.5892,-4.5887,-4.5883,-4.5878,-4.6041,-4.6052,-4.6063,-4.6226,0,0,-4.6096,-4.6101,0,0,0,0,0,0,0,0,-4.5426,-4.5433,-4.5768,-4.577,-4.5772,-4.5929,-4.5931,-4.5933,-4.5891,-4.5888,-4.5884,-4.588,-4.6044,-4.6053,-4.6062,0,0,0,0,0,0,0,0,0,0,0,0,0,0,0,-4.5768,-4.577,0,-4.5929,-4.5931,-4.5932,-4.5891,-4.5888,-4.5884,-4.5881,-4.6046,-4.6054,-4.6061,0,0,0,0,0,0,0,0,0,0,0,0,0,0,0,0,0,0,0,0,0,0,0,0,0,0,0,0,0,0,0,0,0,0,0,0,0,0,0,0,0,0,0,0,0,0,0,0,0,0,0,0,0,0,0,0,0,0,0,0,0,0,0,0,0,0,0,0,0]}],[{"header":{"parameterUnit":"kt","parameterCategory":2,"dx":1,"dy":1,"la1":30.253999710083008,"la2":30.299108505249023,"lo1":-89.0895004272461,"lo2":-89.04439544677734,"nx":28,"ny":28,"refTime":"2022-10-14T21:00:00:Z","depth":0,"parameterNumber":2,"parameterNumberName":"V-component_of_WINDS"},"data":[4.1924,4.2042,4.2074,4.2222,4.2274,4.238,4.2427,4.2491,4.2549,4.2677,4.2755,4.2796,4.2864,4.2963,4.3047,4.3063,4.3096,4.3117,4.3131,4.3015,4.3001,4.2988,4.2963,4.3124,4.3124,4.3247,4.3248,4.3249,4.184,4.1894,4.1981,4.2087,4.2162,4.2162,4.2244,4.2306,4.2399,4.2471,4.2549,4.2663,4.2755,4.2817,4.291,4.2963,4.2967,4.2986,4.2982,4.2993,4.287,4.2844,4.2982,4.2982,4.2982,4.2982,4.2982,4.2982,4.1694,4.1763,4.1845,4.194,4.2001,4.2071,4.2141,4.219,4.2274,4.2377,4.2395,4.25,4.2575,4.27,4.2749,4.283,4.2813,4.2842,4.285,4.2857,4.2861,4.2681,4.2847,4.2846,4.2846,4.2846,4.2846,0,4.1596,4.1618,4.1703,4.1798,4.1869,4.1944,4.2018,4.2062,4.2114,4.218,4.2279,4.234,4.2459,4.2553,4.2646,4.269,4.2693,4.2696,4.2716,4.271,4.2693,4.2704,4.2503,4.269,4.2689,4.2688,4.2687,4.2687,4.1452,4.1528,4.1628,4.1683,4.1732,4.182,4.1878,4.1918,4.1978,4.2073,4.213,4.2226,4.2304,4.2453,4.2506,4.2594,4.2596,4.2664,4.2608,4.26,4.2597,4.2593,4.2601,4.2674,4.2676,4.2677,4.2678,0,4.1368,4.1417,4.1544,4.1634,4.1659,4.1736,4.1812,4.1881,4.192,4.202,4.2045,4.2106,4.22,4.2242,4.2356,4.2374,4.25,4.2499,4.2475,4.2477,4.2543,4.2536,4.275,4.278,4.2613,4.2615,4.2616,0,4.1263,4.1361,4.1429,4.15,4.161,4.1648,4.1754,4.1799,4.1865,4.1943,4.1955,4.2028,4.207,4.2149,4.2176,4.2286,4.2307,4.2327,4.2333,4.2326,4.2324,4.2356,4.2348,4.2343,4.2342,4.2341,4.234,0,4.1126,4.1276,4.1392,4.1434,4.1538,4.1591,4.1636,4.171,4.1765,4.1844,4.188,4.1968,4.2016,4.2083,4.2118,4.2079,4.2253,4.2205,4.2273,4.2273,4.2309,4.2306,4.2485,4.2339,4.2338,4.2338,4.2338,0,4.1048,4.1131,4.1291,4.1378,4.1415,4.1491,4.1582,4.1656,4.1732,4.1755,4.1816,4.1828,4.1927,4.1877,4.2014,4.1953,4.1999,4.2028,4.2034,4.2044,4.1987,4.2083,4.225,4.2269,4.2055,4.2053,4.2051,0,4.0879,4.1053,4.1087,4.1237,4.1324,4.1332,4.1416,4.1483,4.1521,4.1598,4.1638,4.1724,4.1696,4.1729,4.1791,4.1835,4.1914,4.1826,4.1933,4.1937,4.1914,4.2068,4.2083,4.2209,4.2021,4.2024,4.2027,0,4.0752,4.0879,4.0903,4.0953,4.1049,4.112,4.1216,4.1311,4.1361,4.1434,4.1515,4.1636,4.162,4.1673,4.169,4.1753,4.1862,4.1726,4.1728,4.175,4.2009,4.2023,4.2044,4.1859,4.1863,4.1866,4.2003,0,4.0626,4.0718,4.0786,4.0893,4.0955,4.105,4.1096,4.1155,4.1167,4.1204,4.1323,4.1386,4.1479,4.1513,4.1524,4.1654,4.1638,4.1619,4.1573,4.1673,4.172,4.1739,4.1501,4.1499,4.1499,4.1498,0,0,4.045,4.0584,4.0617,4.0712,4.0766,4.0773,4.0871,4.0923,4.1029,4.1065,4.104,4.122,4.1271,4.141,4.1445,4.1482,4.1509,4.1471,4.1625,4.1639,4.1652,4.1701,4.172,4.1496,4.1496,4.1495,4.1495,0,4.0414,4.0471,4.0568,4.0625,4.071,4.0745,4.0769,4.0853,4.088,4.0997,4.0997,4.1073,4.1214,4.1269,4.1316,4.1456,4.1451,4.1481,4.1543,4.1614,4.1629,4.1643,4.1694,4.1712,4.1493,4.1493,4.1493,0,4.0298,4.0362,4.0413,4.0537,4.0592,4.0679,4.0643,4.0736,4.08,4.0798,4.0912,4.0953,4.1029,4.1154,4.1211,4.1189,4.1396,4.1337,4.1345,4.1351,4.1422,4.144,4.1457,4.1242,4.1241,4.124,0,0,4.0259,4.0345,4.0424,4.0532,4.0567,4.062,4.067,4.0687,4.0757,4.0785,4.0836,4.0903,4.0986,4.1039,4.1118,4.1248,4.1267,4.1305,4.1317,4.1326,4.1338,4.1411,4.1429,4.1236,4.1236,4.1236,0,0,4.024,4.0337,4.0337,4.0468,4.0537,4.062,4.0683,4.0684,4.0761,4.0754,4.0784,4.0803,4.092,4.0958,4.0901,4.1102,4.1055,4.107,4.1072,4.1088,4.11,4.1087,4.087,0,0,0,0,0,4.0225,4.0325,4.0325,4.0353,4.0507,4.062,4.064,4.0669,4.0636,4.0686,4.073,4.072,4.0934,4.0885,4.0911,4.0974,4.1185,4.1194,4.1203,4.1237,4.1253,4.1266,0,0,0,0,0,0,4.0237,4.0272,4.0322,4.0409,4.0443,4.0617,4.0568,4.0579,4.0632,4.0629,4.0712,4.0723,4.0748,4.0873,4.0896,4.0955,4.0862,4.1189,4.1196,4.1203,4.1242,4.1255,4.1266,0,0,0,0,0,4.0246,4.0275,4.0515,4.0407,4.0438,4.05,4.0565,4.0573,4.0614,4.0681,4.0691,4.0632,4.0749,4.077,4.0887,4.0944,4.0846,4.0855,4.1194,4.12,4.1205,4.1249,0,0,0,0,0,0,4.0253,4.0282,4.0521,4.0532,4.0372,4.0491,4.0511,4.0568,4.0663,4.0675,4.0601,4.0597,4.075,4.0767,4.0784,4.0939,4.0833,4.0842,4.0848,4.1198,4.1203,4.1207,0,0,0,0,0,0,4.0267,4.0291,4.0527,4.048,4.0485,4.0482,4.05,4.0602,4.0664,4.0578,4.0578,4.0598,4.0724,4.0765,4.0778,4.0936,4.0823,4.0832,4.0837,4.0841,4.1202,4.1206,0,0,0,0,0,0,4.0278,4.0298,4.0478,4.0482,4.0486,4.0603,4.0572,4.0728,4.0628,4.0573,4.0619,4.0615,4.0723,4.0736,4.0774,4.0927,4.0934,4.0823,4.0829,4.0833,4.0836,0,0,0,0,0,0,0,4.0286,4.0144,4.0461,4.0483,4.0487,4.0626,4.0629,4.0632,4.0627,4.0624,4.062,4.0617,4.0775,4.0784,4.0793,4.0919,0,0,4.0823,4.0827,0,0,0,0,0,0,0,0,4.0136,4.0142,4.0461,4.0464,4.0466,4.0626,4.0629,4.0631,4.0626,4.0624,4.0621,4.0618,4.0777,4.0785,4.0792,0,0,0,0,0,0,0,0,0,0,0,0,0,0,0,4.0462,4.0463,0,4.0627,4.0629,4.063,4.0626,4.0624,4.0621,4.0619,4.0779,4.0786,4.0792,0,0,0,0,0,0,0,0,0,0,0,0,0,0,0,0,0,0,0,0,0,0,0,0,0,0,0,0,0,0,0,0,0,0,0,0,0,0,0,0,0,0,0,0,0,0,0,0,0,0,0,0,0,0,0,0,0,0,0,0,0,0,0,0,0,0,0,0,0]}]]]